Погода в Хойане

Вьетнам     15°52′45″N   108°19′52″E
темп.,
°C
ветер,
м/с
пор.,
м/с
влажн.,
%
обл.,
%
осадки,
мм/ч
давл.,
гПа
погр.,
м
24 июля, сб
сб2401:00+27юз697396 0.1 1000258
04:00+28юз51070100 0.1 1000374
07:00+28юз5967100 0.1 1001421
10:00+30юз61062100 0.0 1001622
13:00+34зюз9114616 0.0 1000952
16:00+30юз6958100 0.1 1000917
19:00+26зюз4874100 0.1 1001385
22:00+27юз6107166 0.0 1003376
25 июля, вс
вс2501:00+27юз587184 0.0 1002285
04:00+27юз5769100 0.0 1001317
07:00+29ююз686379 0.0 1003713
10:00+32зюз8115152 0.0 10021045
13:00+31юз8105597 0.0 10021047
16:00+31юз7956100 0.0 10001045
19:00+29ююз686447 0.0 1002563
22:00+28юз586675 0.0 1004357
26 июля, пн
пн2601:00+28юз596481 0.0 1002396
04:00+28юз486426 0.0 1001296
07:00+29зюз68615 0.0 1002491
10:00+33з58527 0.0 1002719
13:00+33св155383 0.0 10001008
16:00+33ююз365593 0.0 998645
19:00+30юз486215 0.0 1000181
22:00+28юз586721 0.0 1002212
27 июля, вт
вт2701:00+27юз587139 0.0 1000203
04:00+28юз586759 0.0 999246
07:00+30юз586161 0.0 1000553
10:00+34зюз475099 0.0 1000768
13:00+34сз1649100 0.0 9981099
16:00+34зюз0653100 0.0 996806
19:00+31юв2365100 0.0 99847
22:00+29юз5970100 0.0 1000200
28 июля, ср
ср2801:00+28юз5870100 0.0 999216
04:00+28юз5971100 0.0 998251
07:00+30юз5862100 0.0 1000440
10:00+34зюз464944 0.0 1000716
13:00+34св6554100 0.0 998934
16:00+31в4568100 0.0 997297
19:00+30юв337992 0.0 99980
22:00+29юз347551 0.0 1001134